Content
SEND FEEDBACK

Daily
Averages
Monthly
Summary
United States of America

WILMINGTON, NORTH CAROLINA


Home > North America > United States > North Carolina
Elevation: 72 feet     Latitude: 34 16N     Longitude: 077 54W

WEATHER
 
SELECT A DAY
Number of Records: 208,565;   Date Range: 1/1/95 - 7/7/14
 
SHARE

PRINT THIS DATA

[ ← Previous Day ]
WEATHER ALMANAC - FEBRUARY 2, 2013
[ Next Day → ]
[ °C ]   °F
Weather ElementAverageHighLow
Temperature37.2 °F48 °F (3:53 pm)24.1 °F (5:53 am)
Dewpoint23.5 °F39 °F (11:53 pm)12 °F (2:53 am)
Humidity59 %79 % (6:53 pm)39 % (9:53 am)
Barometer30.28 in30.42 in (6:53 am)30.06 in (11:53 pm)
Wind Speed4.8 mph10.4 mph (1:53 pm)
Weather ElementAverage
Visibility10 mi
Wind DirectionENE (61.7 °)

Weather ElementTotal
Precipitation---
Heating Degree Days29 (Base 65)
Averaged from 23 records on February 2, 2013
WEATHER CONDITIONS BREAKOUT
WIND DIRECTION BREAKOUT
WEATHER BY HOUR - FEBRUARY 2, 2013
[ °C ]   °F
Local TimeTemperatureDewpointHumidityBarometerVisibilityWind DirectionWind SpeedGust SpeedPrecipitationEventsConditions
1:53 AM26.1 °F14.0 °F60 %30.38 in10.0 miNNE (30°)5.8 mphClear
2:53 AM25.0 °F12.0 °F58 %30.39 in10.0 miNNE (20°)5.8 mphClear
3:53 AM24.8 °F12.2 °F59 %30.39 in10.0 miNNE (30°)6.9 mphClear
4:53 AM25.0 °F12.9 °F60 %30.40 in10.0 miNE (40°)5.8 mphClear
5:53 AM24.1 °F12.0 °F60 %30.40 in10.0 miNE (40°)4.6 mphClear
6:53 AM24.1 °F12.0 °F60 %30.42 in10.0 miNNE (20°)3.5 mphClear
7:53 AM26.1 °F14.0 °F60 %30.42 in10.0 miNNE (30°)3.5 mphClear
8:53 AM30.9 °F12.9 °F47 %30.42 in10.0 miNE (40°)6.9 mphClear
9:53 AM36.0 °F12.9 °F39 %30.41 in10.0 miNE (40°)3.5 mphClear
10:53 AM39.0 °F19.0 °F45 %30.39 in10.0 miVariable3.5 mphClear
11:53 AM42.1 °F21.9 °F45 %30.36 in10.0 miVariable5.8 mphClear
12:53 PM45.0 °F24.1 °F44 %30.31 in10.0 miSE (130°)6.9 mphClear
1:53 PM45.0 °F26.1 °F48 %30.26 in10.0 miESE (110°)10.4 mphClear
2:53 PM46.0 °F28.0 °F50 %30.23 in10.0 miSSE (160°)6.9 mphClear
3:53 PM48.0 °F28.0 °F46 %30.20 in10.0 miSouth (170°)6.9 mphClear
4:53 PM46.9 °F32.0 °F56 %30.19 in10.0 miESE (120°)6.9 mphClear
5:53 PM45.0 °F33.1 °F63 %30.18 in10.0 miCalmMostly Cloudy
6:53 PM39.9 °F34.0 °F79 %30.16 in10.0 miCalmClear
7:53 PM39.9 °F33.1 °F77 %30.13 in10.0 miCalmClear
8:53 PM39.9 °F34.0 °F79 %30.10 in10.0 miCalmClear
9:53 PM42.1 °F35.1 °F76 %30.08 in10.0 miCalmClear
10:53 PM46.9 °F37.9 °F71 %30.07 in10.0 miSSW (210°)9.2 mphPartly Cloudy
11:53 PM46.9 °F39.0 °F74 %30.06 in10.0 miSW (230°)8.1 mphScattered Clouds
Hourly data recorded from KILM, located miles away from Wilmington, North Carolina







STORIES FROM OUR PARTNERS